Погода в Малолосе

Филиппины     14°50′40″N   120°48′43″E
темп.,
°C
ветер,
м/с
пор.,
м/с
влажн.,
%
обл.,
%
осадки,
мм/ч
давл.,
гПа
погр.,
м
25 февраля, чт
чт2523:00+26в12830 0.3 1009159
02:00+25с118416 0.3 1008203
05:00+25ссв228799 0.0 1008154
08:00+25ссв228398 0.0 1010200
11:00+27ююз1173100 0.0 1010358
14:00+28з226797 0.0 1007279
17:00+29сз226392 0.0 1007120
20:00+28ююв456483 0.0 100896
26 февраля, пт
пт2623:00+27юв67781 0.0 1009344
02:00+26вюв34811 0.0 1008384
05:00+24ссв238166 0.0 1008173
08:00+25св227874 0.0 1010238
11:00+28юз116860 0.0 1009390
14:00+28юз226268 0.0 1008383
17:00+30ююз11645 0.0 100782
20:00+28ююз45743 0.0 1009117
27 февраля, сб
сб2723:00+27зюз13780 0.1 1010212
02:00+26с12783 0.3 1009207
05:00+25св337935 0.0 1009191
08:00+25ссв237757 0.0 1011265
11:00+28ююз12672 0.0 1011387
14:00+29ююз436018 0.0 1009222
17:00+29ю346864 0.0 1008139
20:00+27всв467165 0.1 1011184
28 февраля, вс
вс2823:00+26св127595 0.0 1012172
02:00+25с337859 0.0 1011184
05:00+25ссв46824 0.0 1010245
08:00+26св467526 0.0 1013450
11:00+29в356549 0.0 1013542
14:00+30всв796145 0.0 1011548
17:00+29всв79650 0.0 1010402
20:00+27всв57740 0.0 1012380
1 марта, пн
пн123:00+26ссв347723 0.0 1013251
02:00+25ссв458053 0.0 1012234
05:00+25ссв4683100 0.0 1012245
08:00+26св457998 0.0 1014393
11:00+28вюв136815 0.0 1014570
14:00+30ююз23619 0.0 1011537
17:00+30св126718 0.0 1011252
20:00+28в347411 0.0 1013131